When you browse on this site, cookies collect data to enhance your experience and personalize the content and advertising you see.
Visit our Privacy Policy to learn more. By continuing to use the site, you agree to this use of cookies and data.
  • în România
  • Lista ţărilor
  • Pe 7 zile
  • Temperatura apei
  • Hartă satelitară
  • Meteo pe hartă
  • Widget-uri
  • user-avatar
    Intrare

    Meteo pe oră la Atzitzintla

    Astăzi, 25 Aprilie, Joi

    Timp Temperatura Precipitaţii Vânt Presiune Umiditate
    00:00 +16°C° 0 mm 3 m/s 562 mmHg 44%
    01:00 +14°C° 0 mm 3 m/s 561 mmHg 45%
    02:00 +14°C° 0 mm 2 m/s 561 mmHg 46%
    03:00 +14°C° 0 mm 2 m/s 560 mmHg 47%
    04:00 +13°C° 0 mm 2 m/s 560 mmHg 51%
    05:00 +13°C° 0 mm 2 m/s 560 mmHg 55%
    06:00 +13°C° 0 mm 2 m/s 560 mmHg 59%
    07:00 +15°C° 0 mm 2 m/s 562 mmHg 50%
    08:00 +18°C° 0 mm 2 m/s 564 mmHg 42%
    09:00 +22°C° 0 mm 1 m/s 566 mmHg 34%
    10:00 +23°C° 0 mm 2 m/s 567 mmHg 31%
    11:00 +25°C° 0 mm 2 m/s 567 mmHg 28%
    12:00 +26°C° 0 mm 2 m/s 568 mmHg 25%
    13:00 +26°C° 0.1 mm 2 m/s 568 mmHg 27%
    14:00 +26°C° 0.1 mm 3 m/s 567 mmHg 29%
    15:00 +26°C° 0.1 mm 3 m/s 567 mmHg 31%
    16:00 +24°C° 1 mm 3 m/s 566 mmHg 38%
    17:00 +22°C° 1 mm 3 m/s 565 mmHg 46%
    18:00 +20°C° 1 mm 3 m/s 565 mmHg 53%
    19:00 +19°C° 0.4 mm 2 m/s 565 mmHg 63%
    20:00 +17°C° 0.4 mm 2 m/s 565 mmHg 74%
    21:00 +15°C° 0.4 mm 2 m/s 565 mmHg 85%
    22:00 +15°C° 0.1 mm 1 m/s 565 mmHg 86%
    23:00 +15°C° 0.1 mm 1 m/s 565 mmHg 87%

    Mâine, 26 Aprilie, Vineri

    Timp Temperatura Precipitaţii Vânt Presiune Umiditate
    00:00 +14°C° 0.1 mm 1 m/s 565 mmHg 88%
    01:00 +14°C° 0 mm 1 m/s 564 mmHg 88%
    02:00 +13°C° 0 mm 1 m/s 564 mmHg 87%
    03:00 +13°C° 0 mm 1 m/s 564 mmHg 87%
    04:00 +13°C° 0 mm 1 m/s 564 mmHg 87%
    05:00 +12°C° 0 mm 1 m/s 564 mmHg 88%
    06:00 +12°C° 0 mm 1 m/s 564 mmHg 88%
    07:00 +14°C° 0.1 mm 1 m/s 565 mmHg 82%
    08:00 +15°C° 0.1 mm 2 m/s 566 mmHg 75%
    09:00 +17°C° 0.1 mm 2 m/s 567 mmHg 68%
    10:00 +17°C° 0.3 mm 2 m/s 567 mmHg 67%
    11:00 +18°C° 0.3 mm 2 m/s 567 mmHg 67%
    12:00 +18°C° 0.3 mm 3 m/s 567 mmHg 66%
    13:00 +18°C° 0.4 mm 3 m/s 567 mmHg 65%
    14:00 +19°C° 0.4 mm 3 m/s 566 mmHg 64%
    15:00 +19°C° 0.4 mm 3 m/s 566 mmHg 64%
    16:00 +18°C° 0.7 mm 3 m/s 565 mmHg 69%
    17:00 +17°C° 0.7 mm 3 m/s 565 mmHg 75%
    18:00 +16°C° 0.7 mm 3 m/s 564 mmHg 81%
    19:00 +14°C° 1.4 mm 3 m/s 565 mmHg 83%
    20:00 +14°C° 1.4 mm 2 m/s 565 mmHg 85%
    21:00 +14°C° 1.4 mm 2 m/s 565 mmHg 88%
    22:00 +14°C° 1.1 mm 2 m/s 565 mmHg 87%
    23:00 +14°C° 1.1 mm 1 m/s 565 mmHg 86%

    Poimâine, 27 Aprilie, Sâmbătă

    Timp Temperatura Precipitaţii Vânt Presiune Umiditate
    00:00 +14°C° 1.1 mm 1 m/s 565 mmHg 85%
    01:00 +13°C° 0.3 mm 1 m/s 565 mmHg 87%
    02:00 +13°C° 0.3 mm 1 m/s 564 mmHg 88%
    03:00 +12°C° 0.3 mm 1 m/s 563 mmHg 89%
    04:00 +12°C° 0.1 mm 1 m/s 563 mmHg 88%
    05:00 +12°C° 0.1 mm 1 m/s 563 mmHg 87%
    06:00 +11°C° 0.1 mm 1 m/s 563 mmHg 86%
    07:00 +14°C° 0 mm 1 m/s 564 mmHg 75%
    08:00 +16°C° 0 mm 1 m/s 566 mmHg 64%
    09:00 +19°C° 0 mm 1 m/s 567 mmHg 54%
    10:00 +21°C° 0.4 mm 1 m/s 567 mmHg 50%
    11:00 +22°C° 0.4 mm 1 m/s 568 mmHg 46%
    12:00 +24°C° 0.4 mm 2 m/s 568 mmHg 42%
    13:00 +23°C° 1.1 mm 2 m/s 567 mmHg 44%
    14:00 +23°C° 1.1 mm 2 m/s 566 mmHg 46%
    15:00 +21°C° 1.1 mm 2 m/s 565 mmHg 49%
    16:00 +20°C° 2.2 mm 2 m/s 564 mmHg 56%
    17:00 +18°C° 2.2 mm 2 m/s 563 mmHg 63%
    18:00 +18°C° 2.2 mm 1 m/s 563 mmHg 70%
    19:00 +18°C° 1.9 mm 1 m/s 563 mmHg 71%
    20:00 +16°C° 1.9 mm 1 m/s 564 mmHg 73%
    21:00 +16°C° 1.9 mm 1 m/s 564 mmHg 74%
    22:00 +16°C° 1.1 mm 1 m/s 564 mmHg 75%
    23:00 +15°C° 1.1 mm 1 m/s 564 mmHg 75%

    28 Aprilie, Duminică

    Timp Temperatura Precipitaţii Vânt Presiune Umiditate
    00:00 +15°C° 1.1 mm 1 m/s 564 mmHg 75%
    01:00 +15°C° 0.6 mm 1 m/s 563 mmHg 76%
    02:00 +14°C° 0.6 mm 1 m/s 563 mmHg 77%
    03:00 +14°C° 0.6 mm 1 m/s 562 mmHg 77%
    04:00 +14°C° 0.4 mm 1 m/s 562 mmHg 77%
    05:00 +14°C° 0.4 mm 1 m/s 562 mmHg 77%
    06:00 +13°C° 0.4 mm 1 m/s 562 mmHg 78%
    07:00 +15°C° 0.4 mm 1 m/s 564 mmHg 71%
    08:00 +18°C° 0.4 mm 1 m/s 565 mmHg 64%
    09:00 +20°C° 0.4 mm 1 m/s 566 mmHg 57%
    10:00 +22°C° 0.8 mm 1 m/s 567 mmHg 52%
    11:00 +23°C° 0.8 mm 1 m/s 567 mmHg 48%
    12:00 +24°C° 0.8 mm 1 m/s 567 mmHg 44%
    13:00 +23°C° 1.3 mm 2 m/s 566 mmHg 47%
    14:00 +23°C° 1.3 mm 2 m/s 565 mmHg 51%
    15:00 +21°C° 1.3 mm 2 m/s 564 mmHg 55%
    16:00 +19°C° 2.7 mm 2 m/s 564 mmHg 61%
    17:00 +18°C° 2.7 mm 3 m/s 563 mmHg 68%
    18:00 +17°C° 2.7 mm 3 m/s 563 mmHg 75%
    19:00 +17°C° 2.4 mm 2 m/s 563 mmHg 75%
    20:00 +16°C° 2.4 mm 2 m/s 564 mmHg 76%
    21:00 +16°C° 2.4 mm 1 m/s 565 mmHg 77%
    22:00 +16°C° 0.3 mm 1 m/s 564 mmHg 76%
    23:00 +15°C° 0.3 mm 1 m/s 564 mmHg 76%

    29 Aprilie, Luni

    Timp Temperatura Precipitaţii Vânt Presiune Umiditate
    00:00 +14°C° 0.3 mm 0 m/s 564 mmHg 76%
    01:00 +14°C° 0 mm 0 m/s 564 mmHg 76%
    02:00 +13°C° 0 mm 0 m/s 563 mmHg 76%
    03:00 +13°C° 0 mm 0 m/s 562 mmHg 76%
    04:00 +12°C° 0 mm 0 m/s 562 mmHg 76%
    05:00 +12°C° 0 mm 0 m/s 562 mmHg 77%
    06:00 +12°C° 0 mm 0 m/s 562 mmHg 78%
    07:00 +14°C° 0 mm 0 m/s 564 mmHg 69%
    08:00 +16°C° 0 mm 0 m/s 565 mmHg 61%
    09:00 +18°C° 0 mm 0 m/s 567 mmHg 53%
    10:00 +21°C° 0 mm 1 m/s 567 mmHg 48%
    11:00 +23°C° 0 mm 1 m/s 567 mmHg 43%
    12:00 +24°C° 0 mm 2 m/s 568 mmHg 38%
    13:00 +24°C° 0.4 mm 2 m/s 567 mmHg 41%
    14:00 +24°C° 0.4 mm 3 m/s 566 mmHg 43%
    15:00 +24°C° 0.4 mm 3 m/s 566 mmHg 46%
    16:00 +21°C° 0.7 mm 3 m/s 565 mmHg 53%
    17:00 +20°C° 0.7 mm 3 m/s 564 mmHg 61%
    18:00 +18°C° 0.7 mm 3 m/s 564 mmHg 68%
    19:00 +18°C° 0.8 mm 3 m/s 564 mmHg 72%
    20:00 +17°C° 0.8 mm 2 m/s 564 mmHg 76%
    21:00 +16°C° 0.8 mm 2 m/s 564 mmHg 79%
    22:00 +16°C° 0.3 mm 1 m/s 564 mmHg 80%
    23:00 +15°C° 0.3 mm 1 m/s 564 mmHg 81%

    30 Aprilie, Marţi

    Timp Temperatura Precipitaţii Vânt Presiune Umiditate
    00:00 +15°C° 0.3 mm 1 m/s 564 mmHg 81%
    01:00 +15°C° 0.1 mm 1 m/s 564 mmHg 80%
    02:00 +14°C° 0.1 mm 1 m/s 564 mmHg 78%
    03:00 +14°C° 0.1 mm 1 m/s 563 mmHg 77%
    04:00 +14°C° 0 mm 1 m/s 563 mmHg 78%
    05:00 +13°C° 0 mm 1 m/s 563 mmHg 80%
    06:00 +13°C° 0 mm 1 m/s 563 mmHg 81%
    07:00 +15°C° 0 mm 1 m/s 564 mmHg 73%
    08:00 +18°C° 0 mm 1 m/s 565 mmHg 64%
    09:00 +20°C° 0 mm 1 m/s 566 mmHg 55%
    10:00 +21°C° 0.3 mm 1 m/s 566 mmHg 52%
    11:00 +22°C° 0.3 mm 1 m/s 567 mmHg 49%
    12:00 +23°C° 0.3 mm 1 m/s 567 mmHg 46%
    13:00 +23°C° 1 mm 2 m/s 566 mmHg 48%
    14:00 +23°C° 1 mm 2 m/s 565 mmHg 50%
    15:00 +22°C° 1 mm 3 m/s 565 mmHg 52%
    16:00 +21°C° 0.9 mm 3 m/s 564 mmHg 57%
    17:00 +20°C° 0.9 mm 3 m/s 564 mmHg 62%
    18:00 +19°C° 0.9 mm 3 m/s 563 mmHg 67%
    19:00 +18°C° 0.8 mm 2 m/s 564 mmHg 72%
    20:00 +17°C° 0.8 mm 2 m/s 564 mmHg 77%
    21:00 +16°C° 0.8 mm 1 m/s 564 mmHg 83%
    22:00 +15°C° 1.1 mm 1 m/s 564 mmHg 81%
    23:00 +15°C° 1.1 mm 1 m/s 564 mmHg 80%
    Arată mai mult